Location: Medlow Airstrip Trail, Medlow Bath NSW 2780, Australia
(33.6682°S, 150.3233°E)
Time: 21:01:55
(UTC+11:00)

N. Korean satellite - Pass Details

Date: 27 October 2019
Orbit: 456 x 506 km, 97.2° (Epoch: 13 November)

Event Time Altitude Azimuth Distance (km) Brightness Sun altitude
Rises 19:55:24 0° 196° (SSW) 2,535 10.8 -7.5°
Reaches altitude 10° 19:59:19 10° 241° (WSW) 1,632 10.9 -8.3°
Maximum altitude 19:59:45 10° 248° (WSW) 1,617 11.0 -8.4°
Drops below altitude 10° 20:00:12 10° 255° (WSW) 1,627 10.9 -8.5°
Sets 20:04:03 0° 300° (WNW) 2,479 10.7 -9.2°
